owner,sensor,date,latitude,longitude,vertical_datum,sea_water_temperature,qcFlag 
SCCF RECON,ioos:station:SCCF:18:1,2019-02-01T05:00:00Z,26.6955,-81.8138,1.49,19.25,11111222 
SCCF RECON,ioos:station:SCCF:18:1,2019-02-01T06:00:00Z,26.6955,-81.8138,1.49,19.22,11111222 
SCCF RECON,ioos:station:SCCF:18:1,2019-02-01T07:00:00Z,26.6955,-81.8138,1.49,19.23,11111222 
SCCF RECON,ioos:station:SCCF:18:1,2019-02-01T08:00:00Z,26.6955,-81.8138,1.49,19.83,11111222 
SCCF RECON,ioos:station:SCCF:18:1,2019-02-01T09:00:00Z,26.6955,-81.8138,1.49,19.93,11111222 
SCCF RECON,ioos:station:SCCF:18:1,2019-02-01T10:00:00Z,26.6955,-81.8138,1.49,19.31,11111222 
SCCF RECON,ioos:station:SCCF:18:1,2019-02-01T11:00:00Z,26.6955,-81.8138,1.49,19.05,11111222 
SCCF RECON,ioos:station:SCCF:18:1,2019-02-01T12:00:00Z,26.6955,-81.8138,1.49,18.64,11111222 
SCCF RECON,ioos:station:SCCF:18:1,2019-02-01T13:00:00Z,26.6955,-81.8138,1.49,19.06,11111222 
SCCF RECON,ioos:station:SCCF:18:1,2019-02-01T14:00:00Z,26.6955,-81.8138,1.49,18.42,11111222 
SCCF RECON,ioos:station:SCCF:18:1,2019-02-01T15:00:00Z,26.6955,-81.8138,1.49,18.39,11111222 
SCCF RECON,ioos:station:SCCF:18:1,2019-02-01T16:00:00Z,26.6955,-81.8138,1.49,19.01,11111222 
SCCF RECON,ioos:station:SCCF:18:1,2019-02-01T17:00:00Z,26.6955,-81.8138,1.49,18.7,11111222 
SCCF RECON,ioos:station:SCCF:18:1,2019-02-01T18:00:00Z,26.6955,-81.8138,1.49,19.39,11111222 
SCCF RECON,ioos:station:SCCF:18:1,2019-02-01T19:00:00Z,26.6955,-81.8138,1.49,19.34,11111222 
SCCF RECON,ioos:station:SCCF:18:1,2019-02-01T20:00:00Z,26.6955,-81.8138,1.49,19.92,11111222 
SCCF RECON,ioos:station:SCCF:18:1,2019-02-01T21:00:00Z,26.6955,-81.8138,1.49,20.17,11111222 
SCCF RECON,ioos:station:SCCF:18:1,2019-02-01T22:00:00Z,26.6955,-81.8138,1.49,20.11,11111222 
SCCF RECON,ioos:station:SCCF:18:1,2019-02-01T23:00:00Z,26.6955,-81.8138,1.49,20.17,11111222 
SCCF RECON,ioos:station:SCCF:18:1,2019-02-02T05:00:00Z,26.6955,-81.8138,1.49,20.04,11111222 
SCCF RECON,ioos:station:SCCF:18:1,2019-02-02T06:00:00Z,26.6955,-81.8138,1.49,20.04,11111222 
SCCF RECON,ioos:station:SCCF:18:1,2019-02-02T07:00:00Z,26.6955,-81.8138,1.49,20.15,11111222 
SCCF RECON,ioos:station:SCCF:18:1,2019-02-02T08:00:00Z,26.6955,-81.8138,1.49,20.71,11111222 
SCCF RECON,ioos:station:SCCF:18:1,2019-02-02T09:00:00Z,26.6955,-81.8138,1.49,20.78,11111222 
SCCF RECON,ioos:station:SCCF:18:1,2019-02-02T10:00:00Z,26.6955,-81.8138,1.49,21.18,11111222 
SCCF RECON,ioos:station:SCCF:18:1,2019-02-02T11:00:00Z,26.6955,-81.8138,1.49,20.41,11111222 
SCCF RECON,ioos:station:SCCF:18:1,2019-02-02T12:00:00Z,26.6955,-81.8138,1.49,20.26,11111222 
SCCF RECON,ioos:station:SCCF:18:1,2019-02-02T13:00:00Z,26.6955,-81.8138,1.49,20.51,11111222 
SCCF RECON,ioos:station:SCCF:18:1,2019-02-02T14:00:00Z,26.6955,-81.8138,1.49,19.44,11111222 
SCCF RECON,ioos:station:SCCF:18:1,2019-02-02T15:00:00Z,26.6955,-81.8138,1.49,19.76,11111222 
SCCF RECON,ioos:station:SCCF:18:1,2019-02-02T16:00:00Z,26.6955,-81.8138,1.49,18.96,11111222 
SCCF RECON,ioos:station:SCCF:18:1,2019-02-02T17:00:00Z,26.6955,-81.8138,1.49,20.33,11111222 
SCCF RECON,ioos:station:SCCF:18:1,2019-02-02T18:00:00Z,26.6955,-81.8138,1.49,20.37,11111222 
SCCF RECON,ioos:station:SCCF:18:1,2019-02-02T19:00:00Z,26.6955,-81.8138,1.49,20.34,11111222 
SCCF RECON,ioos:station:SCCF:18:1,2019-02-02T20:00:00Z,26.6955,-81.8138,1.49,21.19,11111222 
SCCF RECON,ioos:station:SCCF:18:1,2019-02-02T21:00:00Z,26.6955,-81.8138,1.49,21.0,11111222 
SCCF RECON,ioos:station:SCCF:18:1,2019-02-02T22:00:00Z,26.6955,-81.8138,1.49,20.06,11111222 
SCCF RECON,ioos:station:SCCF:18:1,2019-02-02T23:00:00Z,26.6955,-81.8138,1.49,20.75,11111222 
SCCF RECON,ioos:station:SCCF:18:1,2019-02-03T05:00:00Z,26.6955,-81.8138,1.49,20.34,11111222 
SCCF RECON,ioos:station:SCCF:18:1,2019-02-03T06:00:00Z,26.6955,-81.8138,1.49,20.67,11111222 
SCCF RECON,ioos:station:SCCF:18:1,2019-02-03T07:00:00Z,26.6955,-81.8138,1.49,20.72,11111222 
SCCF RECON,ioos:station:SCCF:18:1,2019-02-03T08:00:00Z,26.6955,-81.8138,1.49,20.36,11111222 
SCCF RECON,ioos:station:SCCF:18:1,2019-02-03T09:00:00Z,26.6955,-81.8138,1.49,20.88,11111222 
SCCF RECON,ioos:station:SCCF:18:1,2019-02-03T10:00:00Z,26.6955,-81.8138,1.49,20.7,11111222 
SCCF RECON,ioos:station:SCCF:18:1,2019-02-03T11:00:00Z,26.6955,-81.8138,1.49,19.59,11111222 
SCCF RECON,ioos:station:SCCF:18:1,2019-02-03T12:00:00Z,26.6955,-81.8138,1.49,20.34,11111222 
SCCF RECON,ioos:station:SCCF:18:1,2019-02-03T13:00:00Z,26.6955,-81.8138,1.49,20.72,11111222 
SCCF RECON,ioos:station:SCCF:18:1,2019-02-03T14:00:00Z,26.6955,-81.8138,1.49,20.84,11111222 
SCCF RECON,ioos:station:SCCF:18:1,2019-02-03T15:00:00Z,26.6955,-81.8138,1.49,20.34,11111222 
SCCF RECON,ioos:station:SCCF:18:1,2019-02-03T16:00:00Z,26.6955,-81.8138,1.49,20.02,11111222 
SCCF RECON,ioos:station:SCCF:18:1,2019-02-03T17:00:00Z,26.6955,-81.8138,1.49,19.27,11111222 
SCCF RECON,ioos:station:SCCF:18:1,2019-02-03T18:00:00Z,26.6955,-81.8138,1.49,20.53,11111222 
SCCF RECON,ioos:station:SCCF:18:1,2019-02-03T19:00:00Z,26.6955,-81.8138,1.49,20.94,11111222 
SCCF RECON,ioos:station:SCCF:18:1,2019-02-03T20:00:00Z,26.6955,-81.8138,1.49,20.32,11111222 
SCCF RECON,ioos:station:SCCF:18:1,2019-02-03T21:00:00Z,26.6955,-81.8138,1.49,20.34,11111222 
SCCF RECON,ioos:station:SCCF:18:1,2019-02-03T22:00:00Z,26.6955,-81.8138,1.49,19.87,11111222 
SCCF RECON,ioos:station:SCCF:18:1,2019-02-03T23:00:00Z,26.6955,-81.8138,1.49,20.39,11111222 
SCCF RECON,ioos:station:SCCF:18:1,2019-02-04T05:00:00Z,26.6955,-81.8138,1.49,20.03,11111222 
SCCF RECON,ioos:station:SCCF:18:1,2019-02-04T06:00:00Z,26.6955,-81.8138,1.49,20.05,11111222 
SCCF RECON,ioos:station:SCCF:18:1,2019-02-04T07:00:00Z,26.6955,-81.8138,1.49,20.8,11111222 
SCCF RECON,ioos:station:SCCF:18:1,2019-02-04T08:00:00Z,26.6955,-81.8138,1.49,20.82,11111222 
SCCF RECON,ioos:station:SCCF:18:1,2019-02-04T09:00:00Z,26.6955,-81.8138,1.49,20.79,11111222 
SCCF RECON,ioos:station:SCCF:18:1,2019-02-04T10:00:00Z,26.6955,-81.8138,1.49,21.04,11111222 
SCCF RECON,ioos:station:SCCF:18:1,2019-02-04T11:00:00Z,26.6955,-81.8138,1.49,21.11,11111222 
SCCF RECON,ioos:station:SCCF:18:1,2019-02-04T12:00:00Z,26.6955,-81.8138,1.49,20.17,11111222 
SCCF RECON,ioos:station:SCCF:18:1,2019-02-04T13:00:00Z,26.6955,-81.8138,1.49,21.79,11111222 
SCCF RECON,ioos:station:SCCF:18:1,2019-02-04T14:00:00Z,26.6955,-81.8138,1.49,21.55,11111222 
SCCF RECON,ioos:station:SCCF:18:1,2019-02-04T16:00:00Z,26.6955,-81.8138,1.49,21.04,11111222 
SCCF RECON,ioos:station:SCCF:18:1,2019-02-04T17:00:00Z,26.6955,-81.8138,1.49,20.13,11111222 
SCCF RECON,ioos:station:SCCF:18:1,2019-02-04T18:00:00Z,26.6955,-81.8138,1.49,22.27,11111222 
SCCF RECON,ioos:station:SCCF:18:1,2019-02-04T19:00:00Z,26.6955,-81.8138,1.49,21.65,11111222 
SCCF RECON,ioos:station:SCCF:18:1,2019-02-04T20:00:00Z,26.6955,-81.8138,1.49,22.36,11111222 
SCCF RECON,ioos:station:SCCF:18:1,2019-02-04T21:00:00Z,26.6955,-81.8138,1.49,22.07,11111222 
SCCF RECON,ioos:station:SCCF:18:1,2019-02-04T22:00:00Z,26.6955,-81.8138,1.49,22.31,11111222 
SCCF RECON,ioos:station:SCCF:18:1,2019-02-04T23:00:00Z,26.6955,-81.8138,1.49,22.06,11111222 
SCCF RECON,ioos:station:SCCF:18:1,2019-02-05T05:00:00Z,26.6955,-81.8138,1.49,20.67,11111222 
SCCF RECON,ioos:station:SCCF:18:1,2019-02-05T06:00:00Z,26.6955,-81.8138,1.49,21.32,11111222 
SCCF RECON,ioos:station:SCCF:18:1,2019-02-05T07:00:00Z,26.6955,-81.8138,1.49,21.47,11111222 
SCCF RECON,ioos:station:SCCF:18:1,2019-02-05T08:00:00Z,26.6955,-81.8138,1.49,21.75,11111222 
SCCF RECON,ioos:station:SCCF:18:1,2019-02-05T09:00:00Z,26.6955,-81.8138,1.49,21.71,11111222 
SCCF RECON,ioos:station:SCCF:18:1,2019-02-05T10:00:00Z,26.6955,-81.8138,1.49,21.22,11111222 
SCCF RECON,ioos:station:SCCF:18:1,2019-02-05T11:00:00Z,26.6955,-81.8138,1.49,22.28,11111222 
SCCF RECON,ioos:station:SCCF:18:1,2019-02-05T12:00:00Z,26.6955,-81.8138,1.49,22.26,11111222 
SCCF RECON,ioos:station:SCCF:18:1,2019-02-05T13:00:00Z,26.6955,-81.8138,1.49,22.33,11111222 
SCCF RECON,ioos:station:SCCF:18:1,2019-02-05T14:00:00Z,26.6955,-81.8138,1.49,22.96,11111222 
SCCF RECON,ioos:station:SCCF:18:1,2019-02-05T15:00:00Z,26.6955,-81.8138,1.49,22.69,11111222 
SCCF RECON,ioos:station:SCCF:18:1,2019-02-05T16:00:00Z,26.6955,-81.8138,1.49,23.19,11111222 
SCCF RECON,ioos:station:SCCF:18:1,2019-02-05T17:00:00Z,26.6955,-81.8138,1.49,23.27,11111222 
SCCF RECON,ioos:station:SCCF:18:1,2019-02-05T18:00:00Z,26.6955,-81.8138,1.49,22.85,11111222 
SCCF RECON,ioos:station:SCCF:18:1,2019-02-05T19:00:00Z,26.6955,-81.8138,1.49,22.85,11111222 
SCCF RECON,ioos:station:SCCF:18:1,2019-02-05T20:00:00Z,26.6955,-81.8138,1.49,23.74,11111222 
SCCF RECON,ioos:station:SCCF:18:1,2019-02-05T21:00:00Z,26.6955,-81.8138,1.49,24.1,11111222 
SCCF RECON,ioos:station:SCCF:18:1,2019-02-05T22:00:00Z,26.6955,-81.8138,1.49,24.1,11111222 
SCCF RECON,ioos:station:SCCF:18:1,2019-02-05T23:00:00Z,26.6955,-81.8138,1.49,24.08,11111222 
SCCF RECON,ioos:station:SCCF:18:1,2019-02-06T05:00:00Z,26.6955,-81.8138,1.49,23.05,11111222 
SCCF RECON,ioos:station:SCCF:18:1,2019-02-06T06:00:00Z,26.6955,-81.8138,1.49,22.98,11111222 
SCCF RECON,ioos:station:SCCF:18:1,2019-02-06T07:00:00Z,26.6955,-81.8138,1.49,22.96,11111222 
SCCF RECON,ioos:station:SCCF:18:1,2019-02-06T08:00:00Z,26.6955,-81.8138,1.49,22.82,11111222 
SCCF RECON,ioos:station:SCCF:18:1,2019-02-06T09:00:00Z,26.6955,-81.8138,1.49,22.7,11111222 
SCCF RECON,ioos:station:SCCF:18:1,2019-02-06T10:00:00Z,26.6955,-81.8138,1.49,22.6,11111222 
SCCF RECON,ioos:station:SCCF:18:1,2019-02-06T11:00:00Z,26.6955,-81.8138,1.49,22.71,11111222 
SCCF RECON,ioos:station:SCCF:18:1,2019-02-06T12:00:00Z,26.6955,-81.8138,1.49,23.04,11111222 
SCCF RECON,ioos:station:SCCF:18:1,2019-02-06T13:00:00Z,26.6955,-81.8138,1.49,22.97,11111222 
SCCF RECON,ioos:station:SCCF:18:1,2019-02-06T14:00:00Z,26.6955,-81.8138,1.49,22.78,11111222 
SCCF RECON,ioos:station:SCCF:18:1,2019-02-06T15:00:00Z,26.6955,-81.8138,1.49,23.2,11111222 
SCCF RECON,ioos:station:SCCF:18:1,2019-02-06T16:00:00Z,26.6955,-81.8138,1.49,23.76,11111222 
SCCF RECON,ioos:station:SCCF:18:1,2019-02-06T17:00:00Z,26.6955,-81.8138,1.49,23.93,11111222 
SCCF RECON,ioos:station:SCCF:18:1,2019-02-06T18:00:00Z,26.6955,-81.8138,1.49,24.23,11111222 
SCCF RECON,ioos:station:SCCF:18:1,2019-02-06T19:00:00Z,26.6955,-81.8138,1.49,23.55,11111222 
SCCF RECON,ioos:station:SCCF:18:1,2019-02-06T20:00:00Z,26.6955,-81.8138,1.49,24.38,11111222 
SCCF RECON,ioos:station:SCCF:18:1,2019-02-06T21:00:00Z,26.6955,-81.8138,1.49,24.77,11111222 
SCCF RECON,ioos:station:SCCF:18:1,2019-02-06T23:00:00Z,26.6955,-81.8138,1.49,24.66,11111222 
SCCF RECON,ioos:station:SCCF:18:1,2019-02-07T05:00:00Z,26.6955,-81.8138,1.49,24.34,11111222 
SCCF RECON,ioos:station:SCCF:18:1,2019-02-07T06:00:00Z,26.6955,-81.8138,1.49,24.07,11111222 
SCCF RECON,ioos:station:SCCF:18:1,2019-02-07T07:00:00Z,26.6955,-81.8138,1.49,23.72,11111222 
SCCF RECON,ioos:station:SCCF:18:1,2019-02-07T08:00:00Z,26.6955,-81.8138,1.49,23.79,11111222 
SCCF RECON,ioos:station:SCCF:18:1,2019-02-07T09:00:00Z,26.6955,-81.8138,1.49,23.37,11111222 
SCCF RECON,ioos:station:SCCF:18:1,2019-02-07T10:00:00Z,26.6955,-81.8138,1.49,23.37,11111222 
SCCF RECON,ioos:station:SCCF:18:1,2019-02-07T11:00:00Z,26.6955,-81.8138,1.49,23.45,11111222 
SCCF RECON,ioos:station:SCCF:18:1,2019-02-07T12:00:00Z,26.6955,-81.8138,1.49,23.73,11111222 
SCCF RECON,ioos:station:SCCF:18:1,2019-02-07T13:00:00Z,26.6955,-81.8138,1.49,23.59,11111222 
SCCF RECON,ioos:station:SCCF:18:1,2019-02-07T14:00:00Z,26.6955,-81.8138,1.49,23.62,11111222 
SCCF RECON,ioos:station:SCCF:18:1,2019-02-07T15:00:00Z,26.6955,-81.8138,1.49,23.94,11111222 
SCCF RECON,ioos:station:SCCF:18:1,2019-02-07T16:00:00Z,26.6955,-81.8138,1.49,24.76,11111222 
SCCF RECON,ioos:station:SCCF:18:1,2019-02-07T17:00:00Z,26.6955,-81.8138,1.49,24.98,11111222 
SCCF RECON,ioos:station:SCCF:18:1,2019-02-07T18:00:00Z,26.6955,-81.8138,1.49,25.49,11111222 
SCCF RECON,ioos:station:SCCF:18:1,2019-02-07T19:00:00Z,26.6955,-81.8138,1.49,25.2,11111222 
SCCF RECON,ioos:station:SCCF:18:1,2019-02-07T20:00:00Z,26.6955,-81.8138,1.49,25.19,11111222 
SCCF RECON,ioos:station:SCCF:18:1,2019-02-07T21:00:00Z,26.6955,-81.8138,1.49,25.52,11111222 
SCCF RECON,ioos:station:SCCF:18:1,2019-02-07T22:00:00Z,26.6955,-81.8138,1.49,25.51,11111222 
SCCF RECON,ioos:station:SCCF:18:1,2019-02-07T23:00:00Z,26.6955,-81.8138,1.49,25.18,11111222 
SCCF RECON,ioos:station:SCCF:18:1,2019-02-08T05:00:00Z,26.6955,-81.8138,1.49,25.44,11111222 
SCCF RECON,ioos:station:SCCF:18:1,2019-02-08T06:00:00Z,26.6955,-81.8138,1.49,25.5,11111222 
SCCF RECON,ioos:station:SCCF:18:1,2019-02-08T07:00:00Z,26.6955,-81.8138,1.49,24.5,11111222 
SCCF RECON,ioos:station:SCCF:18:1,2019-02-08T08:00:00Z,26.6955,-81.8138,1.49,24.27,11111222 
SCCF RECON,ioos:station:SCCF:18:1,2019-02-08T09:00:00Z,26.6955,-81.8138,1.49,23.98,11111222 
SCCF RECON,ioos:station:SCCF:18:1,2019-02-08T10:00:00Z,26.6955,-81.8138,1.49,23.81,11111222 
SCCF RECON,ioos:station:SCCF:18:1,2019-02-08T11:00:00Z,26.6955,-81.8138,1.49,23.87,11111222 
SCCF RECON,ioos:station:SCCF:18:1,2019-02-08T12:00:00Z,26.6955,-81.8138,1.49,24.22,11111222 
SCCF RECON,ioos:station:SCCF:18:1,2019-02-08T13:00:00Z,26.6955,-81.8138,1.49,24.35,11111222 
SCCF RECON,ioos:station:SCCF:18:1,2019-02-08T14:00:00Z,26.6955,-81.8138,1.49,24.28,11111222 
SCCF RECON,ioos:station:SCCF:18:1,2019-02-08T15:00:00Z,26.6955,-81.8138,1.49,24.27,11111222 
SCCF RECON,ioos:station:SCCF:18:1,2019-02-08T16:00:00Z,26.6955,-81.8138,1.49,24.38,11111222 
SCCF RECON,ioos:station:SCCF:18:1,2019-02-08T17:00:00Z,26.6955,-81.8138,1.49,25.01,11111222 
SCCF RECON,ioos:station:SCCF:18:1,2019-02-08T18:00:00Z,26.6955,-81.8138,1.49,25.39,11111222 
SCCF RECON,ioos:station:SCCF:18:1,2019-02-08T19:00:00Z,26.6955,-81.8138,1.49,25.01,11111222 
SCCF RECON,ioos:station:SCCF:18:1,2019-02-08T20:00:00Z,26.6955,-81.8138,1.49,24.75,11111222 
SCCF RECON,ioos:station:SCCF:18:1,2019-02-08T21:00:00Z,26.6955,-81.8138,1.49,25.5,11111222 
SCCF RECON,ioos:station:SCCF:18:1,2019-02-08T22:00:00Z,26.6955,-81.8138,1.49,25.18,11111222 
SCCF RECON,ioos:station:SCCF:18:1,2019-02-08T23:00:00Z,26.6955,-81.8138,1.49,25.62,11111222 
SCCF RECON,ioos:station:SCCF:18:1,2019-02-09T05:00:00Z,26.6955,-81.8138,1.49,25.15,11111222 
SCCF RECON,ioos:station:SCCF:18:1,2019-02-09T06:00:00Z,26.6955,-81.8138,1.49,23.93,11111222 
SCCF RECON,ioos:station:SCCF:18:1,2019-02-09T07:00:00Z,26.6955,-81.8138,1.49,23.74,11111222 
SCCF RECON,ioos:station:SCCF:18:1,2019-02-09T08:00:00Z,26.6955,-81.8138,1.49,24.09,11111222 
SCCF RECON,ioos:station:SCCF:18:1,2019-02-09T09:00:00Z,26.6955,-81.8138,1.49,24.36,11111222 
SCCF RECON,ioos:station:SCCF:18:1,2019-02-09T10:00:00Z,26.6955,-81.8138,1.49,24.34,11111222 
SCCF RECON,ioos:station:SCCF:18:1,2019-02-09T11:00:00Z,26.6955,-81.8138,1.49,24.15,11111222 
SCCF RECON,ioos:station:SCCF:18:1,2019-02-09T12:00:00Z,26.6955,-81.8138,1.49,24.12,11111222 
SCCF RECON,ioos:station:SCCF:18:1,2019-02-09T13:00:00Z,26.6955,-81.8138,1.49,23.93,11111222 
SCCF RECON,ioos:station:SCCF:18:1,2019-02-09T14:00:00Z,26.6955,-81.8138,1.49,23.66,11111222 
SCCF RECON,ioos:station:SCCF:18:1,2019-02-09T15:00:00Z,26.6955,-81.8138,1.49,23.1,11111222 
SCCF RECON,ioos:station:SCCF:18:1,2019-02-09T16:00:00Z,26.6955,-81.8138,1.49,23.92,11111222 
SCCF RECON,ioos:station:SCCF:18:1,2019-02-09T17:00:00Z,26.6955,-81.8138,1.49,24.16,11111222 
SCCF RECON,ioos:station:SCCF:18:1,2019-02-09T18:00:00Z,26.6955,-81.8138,1.49,23.95,11111222 
SCCF RECON,ioos:station:SCCF:18:1,2019-02-09T19:00:00Z,26.6955,-81.8138,1.49,24.25,11111222 
SCCF RECON,ioos:station:SCCF:18:1,2019-02-09T20:00:00Z,26.6955,-81.8138,1.49,24.16,11111222 
SCCF RECON,ioos:station:SCCF:18:1,2019-02-09T21:00:00Z,26.6955,-81.8138,1.49,23.88,11111222 
SCCF RECON,ioos:station:SCCF:18:1,2019-02-09T22:00:00Z,26.6955,-81.8138,1.49,24.19,11111222 
SCCF RECON,ioos:station:SCCF:18:1,2019-02-09T23:00:00Z,26.6955,-81.8138,1.49,24.29,11111222 
SCCF RECON,ioos:station:SCCF:18:1,2019-02-10T05:00:00Z,26.6955,-81.8138,1.49,23.48,11111222 
SCCF RECON,ioos:station:SCCF:18:1,2019-02-10T06:00:00Z,26.6955,-81.8138,1.49,23.12,11111222 
SCCF RECON,ioos:station:SCCF:18:1,2019-02-10T07:00:00Z,26.6955,-81.8138,1.49,23.35,11111222 
SCCF RECON,ioos:station:SCCF:18:1,2019-02-10T08:00:00Z,26.6955,-81.8138,1.49,22.53,11111222 
SCCF RECON,ioos:station:SCCF:18:1,2019-02-10T09:00:00Z,26.6955,-81.8138,1.49,22.91,11111222 
SCCF RECON,ioos:station:SCCF:18:1,2019-02-10T10:00:00Z,26.6955,-81.8138,1.49,22.89,11111222 
SCCF RECON,ioos:station:SCCF:18:1,2019-02-10T11:00:00Z,26.6955,-81.8138,1.49,22.72,11111222 
SCCF RECON,ioos:station:SCCF:18:1,2019-02-10T12:00:00Z,26.6955,-81.8138,1.49,22.66,11111222 
SCCF RECON,ioos:station:SCCF:18:1,2019-02-10T13:00:00Z,26.6955,-81.8138,1.49,22.68,11111222 
SCCF RECON,ioos:station:SCCF:18:1,2019-02-10T14:00:00Z,26.6955,-81.8138,1.49,22.72,11111222 
SCCF RECON,ioos:station:SCCF:18:1,2019-02-10T15:00:00Z,26.6955,-81.8138,1.49,22.92,11111222 
SCCF RECON,ioos:station:SCCF:18:1,2019-02-10T16:00:00Z,26.6955,-81.8138,1.49,24.02,11111222 
SCCF RECON,ioos:station:SCCF:18:1,2019-02-10T17:00:00Z,26.6955,-81.8138,1.49,24.17,11111222 
SCCF RECON,ioos:station:SCCF:18:1,2019-02-10T18:00:00Z,26.6955,-81.8138,1.49,24.56,11111222 
SCCF RECON,ioos:station:SCCF:18:1,2019-02-10T19:00:00Z,26.6955,-81.8138,1.49,24.83,11111222 
SCCF RECON,ioos:station:SCCF:18:1,2019-02-10T20:00:00Z,26.6955,-81.8138,1.49,24.18,11111222 
SCCF RECON,ioos:station:SCCF:18:1,2019-02-10T21:00:00Z,26.6955,-81.8138,1.49,24.59,11111222 
SCCF RECON,ioos:station:SCCF:18:1,2019-02-10T22:00:00Z,26.6955,-81.8138,1.49,24.93,11111222 
SCCF RECON,ioos:station:SCCF:18:1,2019-02-10T23:00:00Z,26.6955,-81.8138,1.49,24.83,11111222 
SCCF RECON,ioos:station:SCCF:18:1,2019-02-11T05:00:00Z,26.6955,-81.8138,1.49,24.51,11111222 
SCCF RECON,ioos:station:SCCF:18:1,2019-02-11T06:00:00Z,26.6955,-81.8138,1.49,24.65,11111222 
SCCF RECON,ioos:station:SCCF:18:1,2019-02-11T07:00:00Z,26.6955,-81.8138,1.49,24.72,11111222 
SCCF RECON,ioos:station:SCCF:18:1,2019-02-11T08:00:00Z,26.6955,-81.8138,1.49,24.72,11111222 
SCCF RECON,ioos:station:SCCF:18:1,2019-02-11T09:00:00Z,26.6955,-81.8138,1.49,24.3,11111222 
SCCF RECON,ioos:station:SCCF:18:1,2019-02-11T10:00:00Z,26.6955,-81.8138,1.49,24.41,11111222 
SCCF RECON,ioos:station:SCCF:18:1,2019-02-11T11:00:00Z,26.6955,-81.8138,1.49,23.82,11111222 
SCCF RECON,ioos:station:SCCF:18:1,2019-02-11T12:00:00Z,26.6955,-81.8138,1.49,24.1,11111222 
SCCF RECON,ioos:station:SCCF:18:1,2019-02-11T13:00:00Z,26.6955,-81.8138,1.49,23.99,11111222 
SCCF RECON,ioos:station:SCCF:18:1,2019-02-11T14:00:00Z,26.6955,-81.8138,1.49,24.0,11111222 
SCCF RECON,ioos:station:SCCF:18:1,2019-02-11T15:00:00Z,26.6955,-81.8138,1.49,24.09,11111222 
SCCF RECON,ioos:station:SCCF:18:1,2019-02-11T16:00:00Z,26.6955,-81.8138,1.49,24.3,11111222 
SCCF RECON,ioos:station:SCCF:18:1,2019-02-11T17:00:00Z,26.6955,-81.8138,1.49,24.92,11111222 
SCCF RECON,ioos:station:SCCF:18:1,2019-02-11T18:00:00Z,26.6955,-81.8138,1.49,25.55,11111222 
SCCF RECON,ioos:station:SCCF:18:1,2019-02-11T19:00:00Z,26.6955,-81.8138,1.49,26.26,11111222 
SCCF RECON,ioos:station:SCCF:18:1,2019-02-11T20:00:00Z,26.6955,-81.8138,1.49,26.52,11111222 
SCCF RECON,ioos:station:SCCF:18:1,2019-02-11T21:00:00Z,26.6955,-81.8138,1.49,25.87,11111222 
SCCF RECON,ioos:station:SCCF:18:1,2019-02-11T22:00:00Z,26.6955,-81.8138,1.49,25.68,11111222 
SCCF RECON,ioos:station:SCCF:18:1,2019-02-11T23:00:00Z,26.6955,-81.8138,1.49,25.81,11111222 
SCCF RECON,ioos:station:SCCF:18:1,2019-02-12T05:00:00Z,26.6955,-81.8138,1.49,25.62,11111222 
SCCF RECON,ioos:station:SCCF:18:1,2019-02-12T06:00:00Z,26.6955,-81.8138,1.49,25.89,11111222 
SCCF RECON,ioos:station:SCCF:18:1,2019-02-12T07:00:00Z,26.6955,-81.8138,1.49,25.74,11111222 
SCCF RECON,ioos:station:SCCF:18:1,2019-02-12T08:00:00Z,26.6955,-81.8138,1.49,25.85,11111222 
SCCF RECON,ioos:station:SCCF:18:1,2019-02-12T09:00:00Z,26.6955,-81.8138,1.49,25.68,11111222 
SCCF RECON,ioos:station:SCCF:18:1,2019-02-12T10:00:00Z,26.6955,-81.8138,1.49,25.79,11111222 
SCCF RECON,ioos:station:SCCF:18:1,2019-02-12T11:00:00Z,26.6955,-81.8138,1.49,25.21,11111222 
SCCF RECON,ioos:station:SCCF:18:1,2019-02-12T12:00:00Z,26.6955,-81.8138,1.49,25.2,11111222 
SCCF RECON,ioos:station:SCCF:18:1,2019-02-12T13:00:00Z,26.6955,-81.8138,1.49,25.08,11111222 
SCCF RECON,ioos:station:SCCF:18:1,2019-02-12T14:00:00Z,26.6955,-81.8138,1.49,24.86,11111222 
SCCF RECON,ioos:station:SCCF:18:1,2019-02-12T15:00:00Z,26.6955,-81.8138,1.49,25.08,11111222 
SCCF RECON,ioos:station:SCCF:18:1,2019-02-12T16:00:00Z,26.6955,-81.8138,1.49,25.39,11111222 
SCCF RECON,ioos:station:SCCF:18:1,2019-02-12T17:00:00Z,26.6955,-81.8138,1.49,25.66,11111222 
SCCF RECON,ioos:station:SCCF:18:1,2019-02-12T18:00:00Z,26.6955,-81.8138,1.49,25.77,11111222 
SCCF RECON,ioos:station:SCCF:18:1,2019-02-12T19:00:00Z,26.6955,-81.8138,1.49,25.91,11111222 
SCCF RECON,ioos:station:SCCF:18:1,2019-02-12T20:00:00Z,26.6955,-81.8138,1.49,25.62,11111222 
SCCF RECON,ioos:station:SCCF:18:1,2019-02-12T21:00:00Z,26.6955,-81.8138,1.49,26.01,11111222 
SCCF RECON,ioos:station:SCCF:18:1,2019-02-12T22:00:00Z,26.6955,-81.8138,1.49,25.23,11111222 
SCCF RECON,ioos:station:SCCF:18:1,2019-02-12T23:00:00Z,26.6955,-81.8138,1.49,25.21,11111222 
SCCF RECON,ioos:station:SCCF:18:1,2019-02-13T05:00:00Z,26.6955,-81.8138,1.49,25.43,11111222 
SCCF RECON,ioos:station:SCCF:18:1,2019-02-13T06:00:00Z,26.6955,-81.8138,1.49,25.33,11111222 
SCCF RECON,ioos:station:SCCF:18:1,2019-02-13T07:00:00Z,26.6955,-81.8138,1.49,24.89,11111222 
SCCF RECON,ioos:station:SCCF:18:1,2019-02-13T08:00:00Z,26.6955,-81.8138,1.49,24.92,11111222 
SCCF RECON,ioos:station:SCCF:18:1,2019-02-13T09:00:00Z,26.6955,-81.8138,1.49,24.63,11111222 
SCCF RECON,ioos:station:SCCF:18:1,2019-02-13T10:00:00Z,26.6955,-81.8138,1.49,24.77,11111222 
SCCF RECON,ioos:station:SCCF:18:1,2019-02-13T11:00:00Z,26.6955,-81.8138,1.49,24.61,11111222 
SCCF RECON,ioos:station:SCCF:18:1,2019-02-13T12:00:00Z,26.6955,-81.8138,1.49,24.75,11111222 
SCCF RECON,ioos:station:SCCF:18:1,2019-02-13T13:00:00Z,26.6955,-81.8138,1.49,24.71,11111222 
SCCF RECON,ioos:station:SCCF:18:1,2019-02-13T14:00:00Z,26.6955,-81.8138,1.49,24.75,11111222 
SCCF RECON,ioos:station:SCCF:18:1,2019-02-13T15:00:00Z,26.6955,-81.8138,1.49,24.31,11111222 
SCCF RECON,ioos:station:SCCF:18:1,2019-02-13T16:00:00Z,26.6955,-81.8138,1.49,24.46,11111222 
SCCF RECON,ioos:station:SCCF:18:1,2019-02-13T17:00:00Z,26.6955,-81.8138,1.49,23.93,11111222 
SCCF RECON,ioos:station:SCCF:18:1,2019-02-13T18:00:00Z,26.6955,-81.8138,1.49,23.67,11111222 
SCCF RECON,ioos:station:SCCF:18:1,2019-02-13T19:00:00Z,26.6955,-81.8138,1.49,23.72,11111222 
SCCF RECON,ioos:station:SCCF:18:1,2019-02-13T20:00:00Z,26.6955,-81.8138,1.49,23.69,11111222 
SCCF RECON,ioos:station:SCCF:18:1,2019-02-13T21:00:00Z,26.6955,-81.8138,1.49,23.59,11111222 
SCCF RECON,ioos:station:SCCF:18:1,2019-02-14T21:00:00Z,26.6955,-81.8138,1.49,23.93,11111222 
SCCF RECON,ioos:station:SCCF:18:1,2019-02-14T22:00:00Z,26.6955,-81.8138,1.49,23.87,11111222 
SCCF RECON,ioos:station:SCCF:18:1,2019-02-14T23:00:00Z,26.6955,-81.8138,1.49,23.42,11111222 
SCCF RECON,ioos:station:SCCF:18:1,2019-02-15T05:00:00Z,26.6955,-81.8138,1.49,22.84,11111222 
SCCF RECON,ioos:station:SCCF:18:1,2019-02-15T06:00:00Z,26.6955,-81.8138,1.49,22.9,11111222 
SCCF RECON,ioos:station:SCCF:18:1,2019-02-15T07:00:00Z,26.6955,-81.8138,1.49,23.06,11111222 
SCCF RECON,ioos:station:SCCF:18:1,2019-02-15T08:00:00Z,26.6955,-81.8138,1.49,22.98,11111222 
SCCF RECON,ioos:station:SCCF:18:1,2019-02-15T09:00:00Z,26.6955,-81.8138,1.49,22.79,11111222 
SCCF RECON,ioos:station:SCCF:18:1,2019-02-15T10:00:00Z,26.6955,-81.8138,1.49,22.69,11111222 
SCCF RECON,ioos:station:SCCF:18:1,2019-02-15T11:00:00Z,26.6955,-81.8138,1.49,22.64,11111222 
SCCF RECON,ioos:station:SCCF:18:1,2019-02-15T12:00:00Z,26.6955,-81.8138,1.49,22.55,11111222 
SCCF RECON,ioos:station:SCCF:18:1,2019-02-15T13:00:00Z,26.6955,-81.8138,1.49,22.36,11111222 
SCCF RECON,ioos:station:SCCF:18:1,2019-02-15T14:00:00Z,26.6955,-81.8138,1.49,21.89,11111222 
SCCF RECON,ioos:station:SCCF:18:1,2019-02-15T15:00:00Z,26.6955,-81.8138,1.49,22.79,11111222 